EZY24YG EGNM-EGAA

Flight info

Callsign EZY24YG
Flight time 1h 1m
Altitude 24000
Route POL Y70 KOLID L70 GUNTU Z196 DIGMA M146 IPSET P6 BELZU
Aircraft A20N/M-SDE2E3FGHIRWXY/LB1

Departure

Time 2026-04-29 22:57
Airport Leeds Bradford Airport (EGNM)

Arrival

Time 2026-04-29 23:59
Airport Belfast International Airport (EGAA)
Time Latitude Longitude Altitude Speed Heading
2026-04-29 21:35 53.86882 -1.65691 666 ft 0 kts
2026-04-29 22:39 53.86884 -1.65691 667 ft 0 kts
2026-04-29 22:39 53.86890 -1.65691 667 ft 1 kts
2026-04-29 22:39 53.86893 -1.65691 667 ft 0 kts
2026-04-29 22:45 53.86887 -1.65691 668 ft 2 kts
2026-04-29 22:45 53.86872 -1.65691 669 ft 2 kts
2026-04-29 22:45 53.86856 -1.65692 670 ft 2 kts
2026-04-29 22:46 53.86841 -1.65692 671 ft 2 kts
2026-04-29 22:46 53.86826 -1.65693 671 ft 2 kts
2026-04-29 22:46 53.86820 -1.65694 671 ft 0 kts 336°
2026-04-29 22:46 53.86815 -1.65688 670 ft 0 kts 278°
2026-04-29 22:47 53.86817 -1.65667 669 ft 2 kts 266°
2026-04-29 22:47 53.86816 -1.65641 668 ft 2 kts 271°
2026-04-29 22:47 53.86816 -1.65632 668 ft 0 kts 269°
2026-04-29 22:50 53.86816 -1.65630 668 ft 0 kts 269°
2026-04-29 22:51 53.86816 -1.65669 669 ft 6 kts 270°
2026-04-29 22:51 53.86813 -1.65789 672 ft 13 kts 268°
2026-04-29 22:51 53.86843 -1.66131 675 ft 15 kts 313°
2026-04-29 22:52 53.86926 -1.66261 675 ft 16 kts 315°
2026-04-29 22:52 53.86959 -1.66329 676 ft 0 kts 300°
2026-04-29 22:55 53.86974 -1.66373 676 ft 11 kts 300°
2026-04-29 22:55 53.86990 -1.66527 675 ft 13 kts 249°
2026-04-29 22:56 53.86944 -1.66600 675 ft 9 kts 151°
2026-04-29 22:56 53.86929 -1.66581 675 ft 0 kts 139°
2026-04-29 22:56 53.86884 -1.66512 675 ft 38 kts 137°
2026-04-29 22:57 53.86511 -1.65937 684 ft 103 kts 136°
2026-04-29 22:57 53.85889 -1.64984 665 ft 141 kts 135°
2026-04-29 22:57 53.85209 -1.63874 1434 ft 138 kts 129°
2026-04-29 22:57 53.84523 -1.62758 2243 ft 143 kts 133°
2026-04-29 22:58 53.83772 -1.61666 3021 ft 148 kts 133°
2026-04-29 22:58 53.82868 -1.60641 3550 ft 173 kts 154°
2026-04-29 22:58 53.81575 -1.60705 4044 ft 212 kts 192°
2026-04-29 22:58 53.80272 -1.62162 4685 ft 235 kts 209°
2026-04-29 22:59 53.78971 -1.64293 5911 ft 239 kts 233°
2026-04-29 22:59 53.78441 -1.66972 6897 ft 245 kts 257°
2026-04-29 22:59 53.78253 -1.69963 7763 ft 251 kts 261°
2026-04-29 22:59 53.78080 -1.73186 8643 ft 250 kts 259°
2026-04-29 23:00 53.77835 -1.76449 9265 ft 255 kts 257°
2026-04-29 23:00 53.77518 -1.79848 9723 ft 269 kts 256°
2026-04-29 23:00 53.77139 -1.83610 10406 ft 275 kts 256°
2026-04-29 23:00 53.76768 -1.87243 11141 ft 277 kts 256°
2026-04-29 23:01 53.76370 -1.91128 11893 ft 280 kts 256°
2026-04-29 23:01 53.75963 -1.95079 12632 ft 283 kts 256°
2026-04-29 23:01 53.75554 -1.99032 13325 ft 287 kts 256°
2026-04-29 23:01 53.75133 -2.03061 13885 ft 308 kts 256°
2026-04-29 23:02 53.74729 -2.06909 14419 ft 324 kts 256°
2026-04-29 23:02 53.74308 -2.10946 15164 ft 331 kts 256°
2026-04-29 23:02 53.73901 -2.14820 15921 ft 335 kts 256°
2026-04-29 23:02 53.73490 -2.18684 16668 ft 339 kts 256°
2026-04-29 23:03 53.73067 -2.22631 17389 ft 342 kts 256°
2026-04-29 23:03 53.72638 -2.26602 18099 ft 346 kts 256°
2026-04-29 23:03 53.72202 -2.30672 18819 ft 350 kts 256°
2026-04-29 23:03 53.71759 -2.34814 19542 ft 353 kts 256°
2026-04-29 23:04 53.71293 -2.39174 20266 ft 356 kts 256°
2026-04-29 23:04 53.70826 -2.43528 20974 ft 359 kts 256°
2026-04-29 23:04 53.70365 -2.47827 21654 ft 362 kts 257°
2026-04-29 23:04 53.70231 -2.52279 22269 ft 372 kts 277°
2026-04-29 23:05 53.71079 -2.56846 22968 ft 377 kts 291°
2026-04-29 23:05 53.72389 -2.61835 23753 ft 380 kts 293°
2026-04-29 23:05 53.73697 -2.66888 24265 ft 384 kts 291°
2026-04-29 23:05 53.74849 -2.71591 24334 ft 372 kts 289°
2026-04-29 23:06 53.75926 -2.76183 24330 ft 355 kts 289°
2026-04-29 23:06 53.76914 -2.80517 24335 ft 352 kts 288°
2026-04-29 23:06 53.77853 -2.84707 24336 ft 351 kts 288°
2026-04-29 23:06 53.78713 -2.88572 24341 ft 351 kts 288°
2026-04-29 23:07 53.79572 -2.92460 24345 ft 351 kts 288°
2026-04-29 23:07 53.80421 -2.96312 24344 ft 351 kts 288°
2026-04-29 23:07 53.81272 -3.00172 24344 ft 351 kts 288°
2026-04-29 23:07 53.82117 -3.04021 24344 ft 351 kts 288°
2026-04-29 23:08 53.82961 -3.07868 24340 ft 351 kts 288°
2026-04-29 23:08 53.83802 -3.11717 24341 ft 350 kts 288°
2026-04-29 23:08 53.84644 -3.15573 24339 ft 351 kts 288°
2026-04-29 23:08 53.85493 -3.19470 24342 ft 351 kts 288°
2026-04-29 23:09 53.86331 -3.23323 24339 ft 351 kts 288°
2026-04-29 23:09 53.87177 -3.27222 24339 ft 351 kts 288°
2026-04-29 23:09 53.88011 -3.31070 24340 ft 351 kts 288°
2026-04-29 23:09 53.88845 -3.34927 24337 ft 351 kts 288°
2026-04-29 23:10 53.89686 -3.38823 24338 ft 351 kts 288°
2026-04-29 23:10 53.90522 -3.42700 24336 ft 351 kts 288°
2026-04-29 23:10 53.91381 -3.46694 24333 ft 351 kts 288°
2026-04-29 23:10 53.92223 -3.50616 24334 ft 351 kts 288°
2026-04-29 23:11 53.93067 -3.54554 24335 ft 351 kts 288°
2026-04-29 23:11 53.93897 -3.58439 24337 ft 351 kts 288°
2026-04-29 23:11 53.94726 -3.62321 24338 ft 352 kts 288°
2026-04-29 23:11 53.95587 -3.66356 24337 ft 351 kts 287°
2026-04-29 23:12 53.96414 -3.70245 24337 ft 351 kts 287°
2026-04-29 23:12 53.97242 -3.74152 24337 ft 351 kts 287°
2026-04-29 23:12 53.98093 -3.78173 24337 ft 351 kts 287°
2026-04-29 23:12 53.98911 -3.82042 24332 ft 351 kts 287°
2026-04-29 23:13 53.99795 -3.86238 24325 ft 351 kts 287°
2026-04-29 23:13 54.00622 -3.90159 24318 ft 352 kts 287°
2026-04-29 23:13 54.01451 -3.94103 24320 ft 352 kts 287°
2026-04-29 23:13 54.02262 -3.97975 24319 ft 352 kts 287°
2026-04-29 23:14 54.03083 -4.01892 24315 ft 352 kts 287°
2026-04-29 23:14 54.03969 -4.06137 24313 ft 352 kts 287°
2026-04-29 23:14 54.04895 -4.10584 24311 ft 351 kts 287°
2026-04-29 23:14 54.05827 -4.15063 24312 ft 351 kts 287°
2026-04-29 23:15 54.06759 -4.19556 24313 ft 351 kts 287°
2026-04-29 23:15 54.07678 -4.23994 24306 ft 350 kts 287°
2026-04-29 23:15 54.08554 -4.28227 24055 ft 346 kts 287°
2026-04-29 23:15 54.09354 -4.32104 23630 ft 346 kts 287°
2026-04-29 23:16 54.10171 -4.36077 23224 ft 345 kts 287°
2026-04-29 23:16 54.11045 -4.40334 22811 ft 343 kts 287°
2026-04-29 23:16 54.11930 -4.44654 22400 ft 341 kts 287°
2026-04-29 23:16 54.12805 -4.48934 21968 ft 339 kts 287°
2026-04-29 23:17 54.13650 -4.53075 21545 ft 338 kts 287°
2026-04-29 23:17 54.14452 -4.57013 21144 ft 337 kts 287°
2026-04-29 23:17 54.15301 -4.61191 20710 ft 336 kts 287°
2026-04-29 23:17 54.16179 -4.65519 20280 ft 334 kts 285°
2026-04-29 23:18 54.17072 -4.69933 19847 ft 332 kts 285°
2026-04-29 23:18 54.17949 -4.74278 19409 ft 330 kts 285°
2026-04-29 23:18 54.18814 -4.78571 18976 ft 329 kts 285°
2026-04-29 23:18 54.19682 -4.82890 18525 ft 328 kts 285°
2026-04-29 23:19 54.20544 -4.87202 18106 ft 326 kts 285°
2026-04-29 23:19 54.21392 -4.91442 17681 ft 325 kts 285°
2026-04-29 23:19 54.22247 -4.95721 17239 ft 324 kts 285°
2026-04-29 23:19 54.23080 -4.99910 16853 ft 322 kts 286°
2026-04-29 23:20 54.23906 -5.04065 16448 ft 320 kts 286°
2026-04-29 23:20 54.24684 -5.07978 16093 ft 318 kts 286°
2026-04-29 23:20 54.25455 -5.11871 15704 ft 317 kts 286°
2026-04-29 23:20 54.26255 -5.15931 15307 ft 315 kts 286°
2026-04-29 23:21 54.27052 -5.19968 14917 ft 314 kts 286°
2026-04-29 23:21 54.27845 -5.24001 14526 ft 312 kts 286°
2026-04-29 23:21 54.28612 -5.27915 14140 ft 310 kts 286°
2026-04-29 23:21 54.29394 -5.31901 13749 ft 309 kts 286°
2026-04-29 23:22 54.30158 -5.35803 13377 ft 307 kts 287°
2026-04-29 23:22 54.30923 -5.39721 13011 ft 305 kts 286°
2026-04-29 23:22 54.31665 -5.43529 12667 ft 302 kts 287°
2026-04-29 23:22 54.32392 -5.47271 12312 ft 299 kts 287°
2026-04-29 23:23 54.33112 -5.50982 11954 ft 298 kts 287°
2026-04-29 23:23 54.33834 -5.54721 11598 ft 295 kts 287°
2026-04-29 23:23 54.34512 -5.58232 11248 ft 294 kts 287°
2026-04-29 23:23 54.35221 -5.61907 10883 ft 293 kts 287°
2026-04-29 23:24 54.35955 -5.65717 10507 ft 291 kts 286°
2026-04-29 23:24 54.36656 -5.69355 10174 ft 288 kts 286°
2026-04-29 23:24 54.37355 -5.73002 9839 ft 286 kts 286°
2026-04-29 23:24 54.38049 -5.76636 9512 ft 282 kts 286°
2026-04-29 23:25 54.38731 -5.80197 9194 ft 279 kts 286°
2026-04-29 23:25 54.39351 -5.83452 8909 ft 275 kts 286°
2026-04-29 23:25 54.39951 -5.86596 8625 ft 272 kts 286°
2026-04-29 23:25 54.40539 -5.89687 8341 ft 269 kts 286°
2026-04-29 23:26 54.41119 -5.92750 8055 ft 267 kts 286°
2026-04-29 23:26 54.41706 -5.95848 7775 ft 264 kts 286°
2026-04-29 23:26 54.42287 -5.98927 7487 ft 262 kts 286°
2026-04-29 23:26 54.42882 -6.02079 7191 ft 259 kts 286°
2026-04-29 23:27 54.43480 -6.05258 6886 ft 257 kts 287°
2026-04-29 23:27 54.44037 -6.08217 6599 ft 254 kts 287°
2026-04-29 23:27 54.44605 -6.11239 6308 ft 253 kts 287°
2026-04-29 23:27 54.45179 -6.14293 6042 ft 253 kts 287°
2026-04-29 23:28 54.45775 -6.17472 5818 ft 253 kts 286°
2026-04-29 23:28 54.46359 -6.20588 5595 ft 252 kts 286°
2026-04-29 23:28 54.46936 -6.23678 5377 ft 252 kts 286°
2026-04-29 23:28 54.47522 -6.26824 5152 ft 251 kts 286°
2026-04-29 23:29 54.48100 -6.29942 4927 ft 251 kts 286°
2026-04-29 23:29 54.48642 -6.32864 4719 ft 251 kts 286°
2026-04-29 23:29 54.49178 -6.35755 4515 ft 250 kts 286°
2026-04-29 23:29 54.49719 -6.38678 4306 ft 250 kts 286°
2026-04-29 23:30 54.50268 -6.41627 4095 ft 249 kts 288°
2026-04-29 23:30 54.51241 -6.44336 3696 ft 251 kts 325°
2026-04-29 23:30 54.52798 -6.45837 3350 ft 248 kts 342°
2026-04-29 23:30 54.54512 -6.47012 2971 ft 249 kts 343°
2026-04-29 23:31 54.56203 -6.48184 2605 ft 251 kts 343°
2026-04-29 23:31 54.57930 -6.48858 2446 ft 226 kts 17°
2026-04-29 23:31 54.59219 -6.47756 2423 ft 182 kts 65°
2026-04-29 23:31 54.59707 -6.45768 2455 ft 151 kts 83°
2026-04-29 23:32 54.60042 -6.43772 2465 ft 147 kts 82°
2026-04-29 23:32 54.60429 -6.41859 2517 ft 140 kts 78°
2026-04-29 23:32 54.60796 -6.40208 2516 ft 141 kts 79°
2026-04-29 23:32 54.61192 -6.38588 2519 ft 142 kts 75°
2026-04-29 23:33 54.61606 -6.37020 2486 ft 136 kts 77°
2026-04-29 23:33 54.62014 -6.35488 2488 ft 135 kts 76°
2026-04-29 23:33 54.62435 -6.33919 2471 ft 129 kts 76°
2026-04-29 23:33 54.62809 -6.32534 2463 ft 123 kts 76°
2026-04-29 23:34 54.63177 -6.31184 2354 ft 124 kts 75°
2026-04-29 23:34 54.63603 -6.29852 2090 ft 123 kts 72°
2026-04-29 23:34 54.64052 -6.28558 1782 ft 121 kts 76°
2026-04-29 23:34 54.64313 -6.27173 1461 ft 113 kts 91°
2026-04-29 23:35 54.64213 -6.25784 1112 ft 115 kts 112°
2026-04-29 23:35 54.63875 -6.24476 1009 ft 118 kts 110°
2026-04-29 23:35 54.63572 -6.23053 952 ft 120 kts 107°
2026-04-29 23:35 54.63278 -6.21604 884 ft 120 kts 113°
2026-04-29 23:36 54.62892 -6.20218 965 ft 121 kts 138°
2026-04-29 23:36 54.62009 -6.19963 1351 ft 131 kts 183°
2026-04-29 23:36 54.61116 -6.20637 1812 ft 137 kts 192°
2026-04-29 23:36 54.60265 -6.21269 1957 ft 138 kts 199°
2026-04-29 23:37 54.59602 -6.22769 2108 ft 158 kts 233°
2026-04-29 23:37 54.59073 -6.24741 2294 ft 159 kts 232°
2026-04-29 23:37 54.58490 -6.26535 2452 ft 155 kts 226°
2026-04-29 23:37 54.57838 -6.28180 2485 ft 155 kts 221°
2026-04-29 23:38 54.57150 -6.29746 2488 ft 153 kts 219°
2026-04-29 23:38 54.56476 -6.31196 2480 ft 152 kts 218°
2026-04-29 23:38 54.55797 -6.32627 2474 ft 151 kts 218°
2026-04-29 23:38 54.55112 -6.34061 2484 ft 151 kts 218°
2026-04-29 23:39 54.54428 -6.35484 2491 ft 151 kts 218°
2026-04-29 23:39 54.53744 -6.36910 2483 ft 151 kts 218°
2026-04-29 23:39 54.53004 -6.38453 2476 ft 152 kts 218°
2026-04-29 23:39 54.52246 -6.40044 2480 ft 154 kts 223°
2026-04-29 23:40 54.51757 -6.41931 2476 ft 166 kts 250°
2026-04-29 23:40 54.51768 -6.44147 2477 ft 175 kts 280°
2026-04-29 23:40 54.52322 -6.46120 2473 ft 177 kts 311°
2026-04-29 23:40 54.53294 -6.47481 2475 ft 171 kts 342°
2026-04-29 23:41 54.54494 -6.48007 2476 ft 160 kts 11°
2026-04-29 23:41 54.55610 -6.47688 2472 ft 145 kts 36°
2026-04-29 23:41 54.56547 -6.46689 2481 ft 134 kts 57°
2026-04-29 23:41 54.57146 -6.45358 2480 ft 124 kts 74°
2026-04-29 23:42 54.57444 -6.43905 2474 ft 117 kts 90°
2026-04-29 23:42 54.57480 -6.42478 2472 ft 112 kts 102°
2026-04-29 23:42 54.57297 -6.41154 2473 ft 110 kts 114°
2026-04-29 23:42 54.56971 -6.39952 2476 ft 109 kts 116°
2026-04-29 23:43 54.56737 -6.38669 2475 ft 111 kts 105°
2026-04-29 23:43 54.56699 -6.37312 2477 ft 114 kts 93°
2026-04-29 23:43 54.56888 -6.35931 2478 ft 119 kts 79°
2026-04-29 23:43 54.57330 -6.34626 2476 ft 128 kts 64°
2026-04-29 23:44 54.58018 -6.33480 2482 ft 134 kts 54°
2026-04-29 23:44 54.58772 -6.32411 2483 ft 137 kts 53°
2026-04-29 23:44 54.59552 -6.31333 2492 ft 136 kts 52°
2026-04-29 23:44 54.60316 -6.30287 2485 ft 134 kts 52°
2026-04-29 23:45 54.61085 -6.29233 2480 ft 136 kts 52°
2026-04-29 23:45 54.61877 -6.28138 2486 ft 134 kts 52°
2026-04-29 23:45 54.62629 -6.27086 2479 ft 135 kts 52°
2026-04-29 23:45 54.63384 -6.26022 2481 ft 135 kts 50°
2026-04-29 23:46 54.64220 -6.24960 2481 ft 133 kts 57°
2026-04-29 23:46 54.64700 -6.23613 2475 ft 116 kts 90°
2026-04-29 23:46 54.64503 -6.22264 2479 ft 109 kts 128°
2026-04-29 23:46 54.63818 -6.21575 2488 ft 116 kts 157°
2026-04-29 23:47 54.62954 -6.21305 2489 ft 118 kts 162°
2026-04-29 23:47 54.62069 -6.21108 2484 ft 118 kts 162°
2026-04-29 23:47 54.61229 -6.20931 2482 ft 118 kts 163°
2026-04-29 23:47 54.60337 -6.20742 2482 ft 119 kts 163°
2026-04-29 23:48 54.59412 -6.20897 2481 ft 132 kts 191°
2026-04-29 23:48 54.58551 -6.21915 2486 ft 145 kts 211°
2026-04-29 23:48 54.57844 -6.23365 2490 ft 153 kts 222°
2026-04-29 23:48 54.57190 -6.25034 2484 ft 157 kts 229°
2026-04-29 23:49 54.56625 -6.26869 2491 ft 158 kts 232°
2026-04-29 23:49 54.56096 -6.28715 2483 ft 157 kts 232°
2026-04-29 23:49 54.55593 -6.30496 2477 ft 157 kts 233°
2026-04-29 23:49 54.55064 -6.32367 2479 ft 158 kts 233°
2026-04-29 23:50 54.54546 -6.34198 2485 ft 158 kts 233°
2026-04-29 23:50 54.54043 -6.35972 2485 ft 159 kts 233°
2026-04-29 23:50 54.53036 -6.39539 2481 ft 158 kts 233°
2026-04-29 23:51 54.52537 -6.41310 2475 ft 158 kts 233°
2026-04-29 23:51 54.52036 -6.43085 2480 ft 157 kts 233°
2026-04-29 23:51 54.51542 -6.44822 2477 ft 157 kts 233°
2026-04-29 23:51 54.51247 -6.46789 2450 ft 171 kts 273°
2026-04-29 23:52 54.51858 -6.48709 2469 ft 174 kts 328°
2026-04-29 23:52 54.52974 -6.49712 2489 ft 169 kts 346°
2026-04-29 23:52 54.54166 -6.50506 2474 ft 167 kts 349°
2026-04-29 23:52 54.55352 -6.51271 2466 ft 169 kts 349°
2026-04-29 23:53 54.56530 -6.52011 2470 ft 169 kts 351°
2026-04-29 23:53 54.57662 -6.52037 2454 ft 143 kts 41°
2026-04-29 23:53 54.58259 -6.50804 2498 ft 121 kts 80°
2026-04-29 23:53 54.58561 -6.49236 2476 ft 119 kts 84°
2026-04-29 23:54 54.58875 -6.47674 2477 ft 121 kts 82°
2026-04-29 23:54 54.59226 -6.46114 2482 ft 122 kts 80°
2026-04-29 23:54 54.59594 -6.44609 2480 ft 121 kts 78°
2026-04-29 23:54 54.59980 -6.43100 2478 ft 121 kts 77°
2026-04-29 23:55 54.60363 -6.41646 2442 ft 121 kts 77°
2026-04-29 23:55 54.60714 -6.40316 2275 ft 120 kts 76°
2026-04-29 23:55 54.61075 -6.38972 2099 ft 120 kts 78°
2026-04-29 23:55 54.61446 -6.37583 1937 ft 121 kts 78°
2026-04-29 23:56 54.61817 -6.36204 1770 ft 121 kts 78°
2026-04-29 23:56 54.62185 -6.34830 1608 ft 119 kts 75°
2026-04-29 23:56 54.62542 -6.33516 1428 ft 119 kts 76°
2026-04-29 23:56 54.62918 -6.32099 1285 ft 122 kts 72°
2026-04-29 23:57 54.63306 -6.30659 1098 ft 123 kts 72°
2026-04-29 23:57 54.63711 -6.29160 909 ft 125 kts 72°
2026-04-29 23:57 54.64124 -6.27628 707 ft 125 kts 72°
2026-04-29 23:57 54.64535 -6.26092 549 ft 131 kts 68°
2026-04-29 23:58 54.64923 -6.24616 322 ft 129 kts 68°
2026-04-29 23:58 54.65314 -6.23208 241 ft 130 kts 68°
2026-04-29 23:58 54.65663 -6.21886 233 ft 101 kts 63°
2026-04-29 23:58 54.65891 -6.21042 256 ft 58 kts 64°
2026-04-29 23:59 54.66054 -6.20431 257 ft 52 kts 66°
2026-04-29 23:59 54.66151 -6.20062 261 ft 29 kts 66°
2026-04-29 23:59 54.66222 -6.19802 266 ft 15 kts 66°
2026-04-29 23:59 54.66263 -6.19680 266 ft 11 kts 37°
2026-04-30 00:00 54.66346 -6.19698 265 ft 13 kts 325°
2026-04-30 00:00 54.66386 -6.19794 264 ft 3 kts 283°
2026-04-30 00:00 54.66389 -6.19850 263 ft 6 kts 266°
2026-04-30 00:00 54.66373 -6.19942 262 ft 9 kts 248°
2026-04-30 00:01 54.66341 -6.20067 260 ft 12 kts 244°
2026-04-30 00:01 54.66297 -6.20224 257 ft 16 kts 245°
2026-04-30 00:01 54.66246 -6.20410 255 ft 18 kts 245°
2026-04-30 00:01 54.66190 -6.20618 254 ft 19 kts 245°
2026-04-30 00:02 54.66132 -6.20827 253 ft 20 kts 244°
2026-04-30 00:02 54.66072 -6.21041 253 ft 20 kts 245°
2026-04-30 00:02 54.66067 -6.21212 249 ft 14 kts 321°
2026-04-30 00:02 54.66107 -6.21249 248 ft 5 kts 330°
2026-04-30 00:03 54.66120 -6.21295 247 ft 4 kts 271°
2026-04-30 00:03 54.66117 -6.21323 246 ft 3 kts 251°
2026-04-30 00:03 54.66110 -6.21351 246 ft 0 kts 249°
2026-04-30 00:03 54.66109 -6.21352 246 ft 0 kts 244°
2026-04-30 00:04 54.66107 -6.21359 246 ft 0 kts 245°